• In Romania
  • List of Countries
  • For 7 days
  • Water Temperature
  • Satellite Maps
  • Weather Map
  • Weather Widgets
  • user-avatar
    Login

    Hourly Weather Kalmazan

    Today, 20 August, Monday

    Time Temperature Precipitation Wind Pressure Humidity
    00:00 +10°C° 0 mm 1 mps 748 mmHg 88%
    01:00 +9°C° 0 mm 1 mps 748 mmHg 90%
    02:00 +9°C° 0 mm 1 mps 748 mmHg 90%
    03:00 +9°C° 0 mm 1 mps 748 mmHg 91%
    04:00 +9°C° 0 mm 1 mps 748 mmHg 91%
    05:00 +9°C° 0 mm 1 mps 748 mmHg 89%
    06:00 +10°C° 0 mm 1 mps 748 mmHg 86%
    07:00 +11°C° 0 mm 1 mps 748 mmHg 84%
    08:00 +13°C° 0 mm 1 mps 748 mmHg 78%
    09:00 +15°C° 0 mm 1 mps 747 mmHg 71%
    10:00 +18°C° 0 mm 1 mps 747 mmHg 65%
    11:00 +18°C° 0 mm 1 mps 747 mmHg 62%
    12:00 +18°C° 0 mm 2 mps 747 mmHg 58%
    13:00 +19°C° 0 mm 2 mps 746 mmHg 54%
    14:00 +19°C° 0 mm 2 mps 746 mmHg 55%
    15:00 +19°C° 0 mm 2 mps 746 mmHg 55%
    16:00 +19°C° 0 mm 2 mps 746 mmHg 55%
    17:00 +18°C° 0 mm 2 mps 746 mmHg 61%
    18:00 +18°C° 0 mm 1 mps 746 mmHg 67%
    19:00 +16°C° 0 mm 1 mps 745 mmHg 72%
    20:00 +15°C° 0 mm 1 mps 745 mmHg 74%
    21:00 +14°C° 0 mm 1 mps 745 mmHg 76%
    22:00 +13°C° 0 mm 1 mps 745 mmHg 78%
    23:00 +13°C° 0 mm 1 mps 745 mmHg 80%

    Tomorrow, 21 August, Tuesday

    Time Temperature Precipitation Wind Pressure Humidity
    00:00 +12°C° 0 mm 2 mps 745 mmHg 82%
    01:00 +12°C° 0 mm 2 mps 745 mmHg 84%
    02:00 +12°C° 0 mm 2 mps 745 mmHg 86%
    03:00 +12°C° 0 mm 2 mps 744 mmHg 87%
    04:00 +10°C° 0 mm 2 mps 744 mmHg 89%
    05:00 +11°C° 0 mm 3 mps 744 mmHg 88%
    06:00 +12°C° 0 mm 3 mps 744 mmHg 86%
    07:00 +13°C° 0 mm 3 mps 744 mmHg 85%
    08:00 +14°C° 0 mm 3 mps 744 mmHg 84%
    09:00 +16°C° 0 mm 3 mps 744 mmHg 82%
    10:00 +18°C° 0 mm 4 mps 744 mmHg 80%
    11:00 +19°C° 0.1 mm 3 mps 743 mmHg 79%
    12:00 +20°C° 0.1 mm 3 mps 743 mmHg 79%
    13:00 +20°C° 0.1 mm 3 mps 743 mmHg 78%
    14:00 +21°C° 0.4 mm 3 mps 743 mmHg 78%
    15:00 +21°C° 0.4 mm 3 mps 742 mmHg 78%
    16:00 +22°C° 0.4 mm 3 mps 742 mmHg 78%
    17:00 +21°C° 0.5 mm 3 mps 742 mmHg 82%
    18:00 +20°C° 0.5 mm 3 mps 742 mmHg 85%
    19:00 +19°C° 0.5 mm 2 mps 742 mmHg 89%
    20:00 +19°C° 0.3 mm 2 mps 741 mmHg 91%
    21:00 +18°C° 0.3 mm 2 mps 741 mmHg 92%
    22:00 +17°C° 0.3 mm 2 mps 741 mmHg 93%
    23:00 +17°C° 0.5 mm 3 mps 741 mmHg 94%

    Day after tomorrow, 22 August, Wednesday

    Time Temperature Precipitation Wind Pressure Humidity
    00:00 +17°C° 0.5 mm 3 mps 741 mmHg 94%
    01:00 +17°C° 0.5 mm 3 mps 741 mmHg 94%
    02:00 +16°C° 0.1 mm 3 mps 741 mmHg 94%
    03:00 +16°C° 0.1 mm 3 mps 740 mmHg 94%
    04:00 +14°C° 0.1 mm 3 mps 740 mmHg 93%
    05:00 +16°C° 0 mm 3 mps 740 mmHg 91%
    06:00 +15°C° 0 mm 4 mps 740 mmHg 89%
    07:00 +15°C° 0 mm 4 mps 740 mmHg 87%
    08:00 +18°C° 0 mm 4 mps 740 mmHg 81%
    09:00 +20°C° 0 mm 5 mps 739 mmHg 76%
    10:00 +21°C° 0 mm 5 mps 739 mmHg 70%
    11:00 +22°C° 0 mm 6 mps 739 mmHg 65%
    12:00 +23°C° 0 mm 6 mps 739 mmHg 61%
    13:00 +24°C° 0 mm 6 mps 739 mmHg 56%
    14:00 +23°C° 0.2 mm 6 mps 739 mmHg 62%
    15:00 +22°C° 0.2 mm 6 mps 739 mmHg 67%
    16:00 +21°C° 0.2 mm 6 mps 739 mmHg 72%
    17:00 +19°C° 0.2 mm 5 mps 739 mmHg 78%
    18:00 +17°C° 0.2 mm 5 mps 739 mmHg 84%
    19:00 +15°C° 0.2 mm 4 mps 739 mmHg 89%
    20:00 +14°C° 0.1 mm 4 mps 739 mmHg 90%
    21:00 +13°C° 0.1 mm 3 mps 739 mmHg 92%
    22:00 +14°C° 0.1 mm 2 mps 740 mmHg 93%
    23:00 +13°C° 0 mm 2 mps 740 mmHg 93%

    23 August, Thursday

    Time Temperature Precipitation Wind Pressure Humidity
    00:00 +12°C° 0 mm 2 mps 740 mmHg 94%
    01:00 +10°C° 0 mm 2 mps 740 mmHg 94%
    02:00 +10°C° 0 mm 2 mps 740 mmHg 95%
    03:00 +10°C° 0 mm 2 mps 740 mmHg 96%
    04:00 +9°C° 0 mm 2 mps 740 mmHg 96%
    05:00 +10°C° 0 mm 3 mps 741 mmHg 95%
    06:00 +10°C° 0 mm 3 mps 741 mmHg 94%
    07:00 +10°C° 0 mm 4 mps 741 mmHg 93%
    08:00 +11°C° 0 mm 4 mps 741 mmHg 87%
    09:00 +12°C° 0 mm 5 mps 742 mmHg 81%
    10:00 +13°C° 0 mm 5 mps 742 mmHg 76%
    11:00 +13°C° 0.1 mm 5 mps 742 mmHg 74%
    12:00 +13°C° 0.1 mm 6 mps 742 mmHg 72%
    13:00 +13°C° 0.1 mm 6 mps 742 mmHg 70%
    14:00 +13°C° 0 mm 6 mps 743 mmHg 69%
    15:00 +13°C° 0 mm 6 mps 743 mmHg 69%
    16:00 +12°C° 0 mm 5 mps 743 mmHg 69%
    17:00 +12°C° 0 mm 5 mps 744 mmHg 71%
    18:00 +11°C° 0 mm 4 mps 744 mmHg 74%
    19:00 +11°C° 0 mm 3 mps 744 mmHg 76%
    20:00 +10°C° 0 mm 3 mps 744 mmHg 78%
    21:00 +9°C° 0 mm 3 mps 744 mmHg 81%
    22:00 +8°C° 0 mm 3 mps 744 mmHg 83%
    23:00 +8°C° 0 mm 3 mps 744 mmHg 83%

    24 August, Friday

    Time Temperature Precipitation Wind Pressure Humidity
    00:00 +8°C° 0 mm 3 mps 744 mmHg 82%
    01:00 +7°C° 0 mm 4 mps 744 mmHg 81%
    02:00 +7°C° 0 mm 4 mps 744 mmHg 82%
    03:00 +7°C° 0 mm 4 mps 744 mmHg 83%
    04:00 +7°C° 0 mm 4 mps 744 mmHg 83%
    05:00 +8°C° 0 mm 5 mps 744 mmHg 82%
    06:00 +8°C° 0 mm 5 mps 744 mmHg 81%
    07:00 +9°C° 0 mm 5 mps 744 mmHg 80%
    08:00 +10°C° 0 mm 5 mps 744 mmHg 78%
    09:00 +11°C° 0 mm 6 mps 744 mmHg 75%
    10:00 +13°C° 0 mm 6 mps 744 mmHg 72%
    11:00 +13°C° 0.1 mm 6 mps 743 mmHg 72%
    12:00 +14°C° 0.1 mm 6 mps 743 mmHg 72%
    13:00 +14°C° 0.1 mm 6 mps 743 mmHg 73%
    14:00 +14°C° 0.3 mm 5 mps 743 mmHg 74%
    15:00 +14°C° 0.3 mm 5 mps 743 mmHg 75%
    16:00 +14°C° 0.3 mm 5 mps 743 mmHg 77%
    17:00 +13°C° 0.2 mm 4 mps 743 mmHg 80%
    18:00 +12°C° 0.2 mm 3 mps 743 mmHg 83%
    19:00 +12°C° 0.2 mm 3 mps 744 mmHg 86%
    20:00 +11°C° 0 mm 3 mps 744 mmHg 88%
    21:00 +10°C° 0 mm 2 mps 744 mmHg 91%
    22:00 +9°C° 0 mm 2 mps 744 mmHg 93%
    23:00 +8°C° 0 mm 2 mps 744 mmHg 93%

    25 August, Saturday

    Time Temperature Precipitation Wind Pressure Humidity
    00:00 +8°C° 0 mm 2 mps 744 mmHg 94%
    01:00 +8°C° 0 mm 2 mps 745 mmHg 94%
    02:00 +8°C° 0.2 mm 3 mps 745 mmHg 94%
    03:00 +8°C° 0.2 mm 3 mps 745 mmHg 94%
    04:00 +9°C° 0.2 mm 3 mps 745 mmHg 93%
    05:00 +9°C° 0.1 mm 3 mps 745 mmHg 93%
    06:00 +8°C° 0.1 mm 4 mps 745 mmHg 93%
    07:00 +8°C° 0.1 mm 4 mps 745 mmHg 92%
    08:00 +10°C° 0 mm 4 mps 745 mmHg 91%
    09:00 +11°C° 0 mm 4 mps 745 mmHg 89%
    10:00 +12°C° 0 mm 4 mps 746 mmHg 87%
    11:00 +13°C° 0 mm 4 mps 746 mmHg 85%
    12:00 +14°C° 0 mm 4 mps 746 mmHg 83%
    13:00 +15°C° 0 mm 4 mps 746 mmHg 80%
    14:00 +15°C° 0 mm 4 mps 746 mmHg 80%
    15:00 +15°C° 0 mm 4 mps 746 mmHg 80%
    16:00 +15°C° 0 mm 4 mps 746 mmHg 79%
    17:00 +16°C° 0 mm 3 mps 746 mmHg 82%
    18:00 +14°C° 0 mm 3 mps 746 mmHg 85%
    19:00 +14°C° 0 mm 3 mps 746 mmHg 88%
    20:00 +14°C° 0 mm 2 mps 746 mmHg 89%
    21:00 +14°C° 0 mm 2 mps 746 mmHg 90%
    22:00 +14°C° 0 mm 2 mps 746 mmHg 91%
    23:00 +13°C° 0 mm 2 mps 746 mmHg 93%
    Show more